Home   Weather   Emden   Past weeks

Flag for Germany Past Weather in Emden, Lower Saxony, Germany — Yesterday and Last 2 Weeks

Now
28 °F

Ice fog.


Feels Like: 23 °F
Forecast: 27 / 37 °F
Wind: 5 mph from South

Location: Wittmundhaven

Current Time: Jan 22, 2017 at 1:37:27 pm

Latest Report: Jan 22, 2017 at 12:20 pm


Visibility: 0 mi

Pressure: 30.36 "Hg

Humidity: 100%

Dew Point: 28 °F

Location of EmdenLocation

Past Weather in Emden — Graph

°F

Emden Temperature Yesterday

Maximum temperature yesterday: 37 °F (at 12:20 pm)
Minimum temperature yesterday: 34 °F (at 12:20 am)
Average temperature yesterday: 35 °F

High & Low Weather Summary for the Past Weeks

 TemperatureHumidityPressure
High46 °F (Jan 11, 1:20 pm)100% (Jan 7, 12:20 pm)30.72 "Hg (Jan 7, 12:20 pm)
Low19 °F (Jan 17, 12:20 am)61% (Jan 13, 1:20 pm)29.12 "Hg (Jan 13, 2:20 am)
Average34 °F91%30.10 "Hg
* Reported Jan 7 12:20 pm — Jan 22 12:20 pm, Emden, Weather by CustomWeather, © 2017

Note: Actual official high and low records may vary slightly from our data, if they occured in-between our weather recording intervals... More about our weather records

Advertising

Emden Weather History for the Previous 24 Hours

Scroll right to see more
 ConditionsComfort  
Time TempWeatherWind HumidityBarometerVisibility
12:20 pm
Sun, Jan 22
28 °FIce fog.5 mph100%30.36 "Hg1 mi
11:20 am28 °FIce fog.5 mph100%30.36 "Hg1 mi
10:20 am28 °FIce fog.6 mph100%30.36 "Hg1 mi
9:20 am28 °FIce fog.6 mph100%30.36 "Hg1 mi
8:20 am30 °FIce fog.7 mph93%30.36 "Hg1 mi
7:20 am30 °FIce fog.8 mph93%30.36 "Hg3 mi
6:20 am28 °FIce fog.6 mph93%30.36 "Hg3 mi
5:20 am30 °FIce fog.9 mph100%30.36 "Hg3 mi
4:50 am30 °FIce fog.6 mph100%30.36 "Hg3 mi
4:42 am30 °FIce fog.6 mph93%30.36 "Hg3 mi
4:20 am28 °FPassing clouds.7 mph100%30.36 "Hg4 mi
3:20 am30 °FChilly.7 mph93%30.39 "Hg4 mi
2:20 am30 °FChilly.6 mph93%30.39 "Hg5 mi
1:20 am30 °FChilly.7 mph100%30.39 "Hg6 mi
12:20 am32 °FChilly.6 mph93%30.39 "HgN/A
11:20 pm
Sat, Jan 21
34 °FPassing clouds.8 mph93%30.39 "HgN/A
10:20 pm34 °FPassing clouds.8 mph93%30.42 "HgN/A
9:20 pm36 °FPassing clouds.7 mph87%30.42 "HgN/A
8:20 pm37 °FPassing clouds.6 mph87%30.42 "HgN/A
7:20 pm36 °FPassing clouds.5 mph93%30.42 "HgN/A
6:20 pm36 °FPassing clouds.3 mph93%30.42 "Hg6 mi
5:59 pm36 °FPassing clouds.5 mph93%30.42 "Hg5 mi
5:20 pm36 °FPassing clouds.5 mph100%30.45 "Hg4 mi
4:20 pm37 °FPartly sunny.3 mph93%30.42 "Hg4 mi
3:20 pm37 °FFog.1 mph93%30.45 "Hg2 mi
2:20 pm37 °FFog.2 mph93%30.45 "Hg2 mi
1:20 pm37 °FFog.2 mph93%30.48 "Hg2 mi
Weather by CustomWeather, © 2017

See weather overviewHow to use our weather pages